Temp
8 7 7 7 7 8 7 7 7 7 7 7 7 7 7 7 7 7 7 7 7 7 7 7 8 8 8 6 6 11 10 11 12 12 12 12 12 12 13 12 14 13 15 15 16 15 15
7 7 7 7 7 7 7 7 7 7 7 7 7 7 7 6 6 6 6 6 7 7 7 7 8 8 7 5 9 9 10 11 11 11 11 12 13 12 11 12 13 15 15 15 15 15 16
7 7 7 7 7 7 7 7 7 7 7 7 7 6 6 6 6 6 6 6 7 7 7 8 8 8 8 7 9 9 11 11 11 10 10 11 12 9 10 12 14 14 13 14 14 15 15
7 7 7 7 7 7 7 7 7 7 6 6 6 6 6 6 6 6 6 7 7 7 7 8 8 8 8 10 9 11 10 10 10 10 10 11 11 11 10 9 11 12 13 12 15 15 15
7 7 7 7 7 7 7 7 6 6 6 6 6 6 6 5 5 6 6 7 7 8 10 10 8 8 8 10 9 9 10 9 10 9 10 11 11 10 11 9 9 10 11 13 13 15 15
6 6 7 7 6 6 6 6 6 6 6 6 5 5 5 5 5 5 6 7 7 7 9 9 8 7 8 6 9 9 10 9 8 8 8 8 7 8 9 8 9 10 10 13 12 15 15
6 7 6 6 6 6 6 6 6 6 6 5 5 5 5 5 5 6 6 6 4 3 4 4 4 5 6 8 9 9 9 8 7 7 5 6 5 5 8 8 9 10 10 10 13 13 15
6 6 6 6 6 6 6 6 5 5 5 5 5 5 5 5 5 6 6 5 4 3 3 5 5 5 6 8 7 7 8 6 5 5 6 4 4 6 7 7 6 5 7 9 9 10 11
6 6 6 6 5 5 5 5 5 5 5 5 5 4 5 5 5 6 5 4 4 5 3 4 6 7 7 7 7 6 6 6 5 4 3 1 4 6 6 7 4 4 6 7 8 10 10
6 5 5 5 5 5 5 5 5 5 5 5 4 4 5 5 5 5 5 5 4 4 1 6 6 7 7 6 6 7 7 6 4 1 3 2 5 4 4 4 5 3 7 8 7 7 9
5 5 5 5 5 5 5 5 5 5 4 4 4 4 4 5 5 4 4 4 4 4 -1 5 6 7 6 6 5 6 6 5 3 2 2 1 3 3 3 4 4 5 7 6 7 7 8
5 5 5 5 5 5 5 5 5 5 4 4 4 4 5 6 5 5 4 4 4 -0 -3 4 5 4 4 5 5 5 5 4 4 3 4 2 4 3 2 3 4 6 5 6 6 6 6
5 5 5 5 5 5 4 4 4 4 4 4 4 5 6 6 4 5 4 3 0 -1 4 3 3 4 4 4 4 4 4 -1 -1 -0 0 1 3 4 5 3 5 3 3 5 6 7 7
4 4 5 4 4 4 4 4 4 4 4 4 4 6 6 6 5 5 4 2 -0 3 3 4 4 4 3 4 3 3 2 -1 -0 0 0 -1 0 3 5 3 2 2 3 4 4 7 8
4 5 4 4 4 4 4 4 4 4 4 3 5 6 6 5 6 6 0 -2 -0 1 2 3 3 2 2 3 2 0 -1 -4 -4 -2 -1 -1 1 4 5 5 3 4 4 6 5 3 8
4 4 4 4 4 4 4 4 4 4 3 3 3 4 6 5 6 5 -2 2 2 2 3 3 0 2 0 0 0 -1 -2 -3 -3 -2 -4 -1 -1 4 5 4 3 2 4 3 7 7 6
4 4 4 4 4 4 4 4 4 4 3 4 3 1 6 6 6 -1 -3 -2 1 3 3 2 1 -0 -2 -1 -0 -2 -3 -0 -2 1 -0 -5 -1 2 4 2 1 2 1 2 3 7 6
4 4 4 4 4 4 3 3 3 3 3 3 1 1 5 5 1 -1 -2 1 4 3 3 3 2 -3 -2 0 -2 -0 -1 -1 1 -1 -2 -2 -0 -0 1 3 2 2 1 1 2 4 6
3 4 4 3 3 3 3 3 3 3 3 2 -3 -1 4 5 -3 -2 -0 1 2 3 3 2 1 2 -0 -0 -1 0 1 3 2 1 -3 -1 -2 -0 1 1 3 1 1 1 1 2 5
3 3 3 3 3 3 3 3 3 3 3 2 -3 -2 -0 -1 -1 -5 -5 -0 2 3 2 3 2 2 1 0 1 -1 1 2 2 2 4 2 -1 -1 -1 -0 1 0 1 2 2 3 7
3 3 3 3 3 3 3 3 3 3 3 2 -4 -2 -1 -3 -1 -1 -2 -3 0 1 2 1 1 2 -0 -2 -0 0 1 1 2 2 1 -0 -2 2 2 2 1 2 2 1 1 4 6
3 3 3 3 3 3 3 3 3 3 2 2 -4 -4 -3 -3 -2 -1 -1 -2 1 0 -1 0 1 1 0 -4 -1 -1 -0 -0 -1 -0 0 -0 -0 2 1 2 1 2 1 2 1 1 2
3 3 3 3 3 3 3 2 3 3 2 2 2 1 -1 -1 -2 -4 -1 0 0 1 1 2 1 -1 0 1 1 0 0 -0 -0 -1 -0 -1 0 1 0 1 2 2 1 1 1 -0 0
3 3 3 3 3 3 2 2 2 2 2 2 2 0 -0 -2 -1 0 0 -0 0 0 -0 1 0 -1 1 1 -0 -0 -1 0 1 2 1 -0 0 1 1 2 2 -0 1 1 0 -1 -1
3 3 3 3 2 2 2 2 2 2 2 2 2 1 0 -3 -1 0 -1 -1 -2 -1 -1 0 1 1 -1 -1 -2 -2 -1 1 2 2 1 1 0 -0 1 1 2 2 0 -0 1 0 -0
2 2 2 2 2 2 2 2 2 2 2 2 2 1 -0 -1 -3 -0 -3 -4 -5 -4 -4 -0 0 0 -0 -0 -3 -5 -3 -1 -0 0 2 2 0 0 1 1 1 -1 0 2 2 2 -1
2 2 2 2 2 2 2 2 2 2 2 2 1 1 1 -2 -3 -3 -4 -4 -1 -3 -6 -5 -3 -2 -1 -2 -2 -3 -2 -1 -3 -2 -2 -1 -2 -1 1 1 0 -1 1 1 0 -1 -1
2 2 2 2 2 2 2 2 2 2 2 1 1 1 1 -4 -3 -1 0 -3 -2 -5 -5 -4 -5 -4 -5 -4 -3 -5 -6 -6 -5 -2 -1 -4 -3 -2 -0 -1 -1 -1 0 -2 -2 -2 -2
2 2 2 2 2 2 1 1 2 2 2 1 0 0 -0 -1 -3 -1 0 0 0 -0 -0 -6 -5 -3 -2 -3 -4 -3 -3 -7 -8 -5 -3 -4 -5 -3 -2 -1 -1 -1 -2 -1 -2 -3 -2
Height
870 869 868 866 865 863 861 858 855 852 848 845 841 838 834 829 824 819 814 809 803 798 795 791 789 787 788 787 780 769 767 763 760 758 758 758 759 758 750 744 747 737 723 724 726 731 730
872 870 869 868 865 863 861 859 855 852 849 845 841 837 832 827 822 817 811 806 799 795 789 786 783 783 785 792 772 773 768 764 760 760 759 758 756 756 751 746 741 722 725 721 724 722 723
872 871 870 868 865 863 861 858 855 852 848 845 841 836 831 826 820 813 806 799 793 788 784 781 781 781 781 779 772 770 767 764 764 761 758 754 755 760 751 740 734 725 727 720 712 711 718
873 872 870 868 866 864 861 858 855 852 848 844 839 835 830 825 819 811 804 795 786 780 778 777 778 780 776 773 773 769 767 764 763 760 756 752 750 747 748 745 730 727 722 715 679 712 710
873 872 870 868 866 864 862 859 855 851 847 843 838 834 828 823 817 811 804 795 789 783 775 772 775 778 778 774 773 771 767 763 760 758 752 747 746 743 741 743 739 726 711 702 698 702 709
873 872 870 868 867 865 862 859 856 852 848 844 838 833 828 822 816 809 802 794 787 784 780 778 778 782 781 783 773 770 767 762 759 757 752 752 749 741 738 743 727 718 714 699 699 696 700
873 872 870 869 867 865 863 859 856 852 848 843 839 833 826 820 815 810 803 793 795 793 794 802 797 797 789 781 775 772 765 759 758 759 763 756 758 752 735 732 726 717 714 707 694 695 691
874 873 871 870 868 866 863 859 856 852 848 843 837 832 825 818 813 810 805 804 812 817 807 793 789 791 784 780 777 772 768 767 763 764 759 762 760 744 738 735 737 738 721 709 708 707 704
874 873 872 870 868 865 863 859 856 852 847 841 836 830 824 818 813 810 809 809 810 808 810 797 788 786 784 781 778 774 770 768 766 767 771 777 755 743 737 726 740 733 721 718 708 698 698
875 874 872 870 868 866 863 859 855 851 846 840 835 829 823 819 814 813 811 808 806 807 816 798 794 790 786 781 779 772 771 770 769 777 768 769 746 746 741 733 734 734 717 709 711 712 690
875 874 872 870 868 866 863 860 855 851 846 840 835 829 823 818 818 815 812 806 803 805 849 803 799 792 789 789 784 774 772 768 774 773 776 771 752 741 738 731 729 718 708 711 706 707 702
874 873 871 870 868 866 863 860 856 851 845 839 834 827 823 820 817 814 807 802 802 824 862 808 803 799 792 786 783 777 772 770 768 768 760 758 744 741 743 728 722 707 710 708 703 703 701
873 872 871 869 867 865 863 860 856 851 845 839 832 826 822 821 818 811 805 802 825 842 817 815 809 801 798 792 787 783 777 792 792 783 771 755 741 732 722 731 709 713 717 695 687 681 676
872 871 870 869 867 865 863 859 856 851 846 838 831 827 826 823 818 810 804 812 838 827 826 816 808 803 800 795 791 787 784 796 782 781 772 777 745 727 721 728 731 718 717 700 701 670 668
871 871 870 869 867 865 862 860 856 852 846 839 832 829 826 823 817 812 815 843 844 835 827 818 811 807 804 797 800 799 798 812 800 786 784 777 746 723 715 710 722 701 699 686 686 690 662
871 870 870 869 867 865 862 860 856 852 846 839 834 831 827 825 820 817 832 829 834 829 823 817 827 813 815 811 808 809 804 798 794 784 784 776 757 717 712 713 711 719 701 694 661 653 670
869 869 868 868 867 864 862 860 857 853 847 839 834 836 830 825 822 828 853 848 833 825 823 821 820 825 829 819 808 813 811 787 786 773 771 784 769 727 719 727 727 710 714 705 690 643 659
869 868 868 867 865 864 861 859 857 853 848 841 840 842 832 829 835 840 848 836 827 823 821 819 817 832 829 813 816 802 798 792 775 778 776 771 758 748 730 713 718 721 719 714 711 680 654
869 869 869 868 866 863 860 858 856 853 849 846 849 846 834 832 855 849 840 834 829 823 820 818 819 813 815 813 811 797 785 774 771 770 782 766 767 752 729 723 715 721 712 715 706 702 674
868 868 867 867 865 863 860 858 856 853 848 845 850 856 843 840 844 857 859 837 828 821 819 816 816 813 810 808 801 800 787 774 768 765 753 756 768 766 763 755 741 732 715 695 698 692 658
867 868 868 867 865 862 860 858 855 853 849 848 853 858 852 857 846 847 848 847 831 826 823 820 817 813 816 817 802 792 785 776 761 759 759 762 772 748 739 736 737 732 717 713 707 684 672
866 867 866 865 863 862 860 857 855 852 850 849 858 860 852 852 847 845 841 842 829 828 831 823 819 812 809 824 810 801 791 783 780 768 766 761 761 743 742 731 733 727 729 719 718 715 705
865 864 864 864 862 861 859 857 855 853 851 850 851 850 850 845 846 855 841 834 829 828 820 817 817 815 807 798 796 787 782 780 777 779 771 768 758 750 743 733 722 726 734 729 732 730 720
863 863 863 862 861 860 858 856 854 853 852 851 849 848 848 848 843 837 834 833 828 825 824 816 815 815 803 794 788 781 778 773 769 766 767 766 757 747 745 729 727 751 743 738 737 738 735
861 862 862 861 860 859 857 854 853 851 850 848 847 846 845 848 840 834 835 831 830 824 824 816 811 807 803 799 803 798 788 777 769 766 764 764 762 759 751 744 733 728 737 742 736 739 738
859 860 861 860 858 857 854 852 851 849 847 845 844 843 843 843 843 832 836 836 840 836 828 815 811 806 804 803 811 827 813 795 786 774 764 761 764 764 754 749 748 772 745 731 726 716 737
857 857 858 858 856 855 852 849 848 846 846 844 841 841 841 843 834 834 838 836 828 832 839 829 820 812 808 811 812 818 810 802 808 799 794 782 780 775 762 755 760 773 754 732 740 762 750
855 857 856 856 854 852 851 848 846 844 842 840 839 838 839 840 832 828 826 830 829 832 837 826 826 822 823 824 818 831 832 827 821 802 795 812 801 788 778 776 776 775 762 771 782 771 760
852 854 853 853 852 849 847 846 845 842 840 837 836 835 836 836 830 825 822 822 822 823 823 827 828 823 817 820 821 816 818 830 840 828 806 819 821 809 800 791 787 787 786 783 780 774 764
Wind_Speed
11 12 12 13 14 14 15 16 19 18 18 21 23 24 26 27 28 28 30 30 32 30 28 26 22 19 10 1 8 16 28 29 24 24 8 6 10 15 19 7 17 24 21 12 19 17 10
10 11 12 13 13 13 15 18 18 18 20 23 24 25 27 28 29 30 32 34 33 33 30 27 19 9 3 5 3 18 31 25 25 19 13 9 12 8 13 16 19 3 24 25 20 15 20
10 10 12 12 13 13 16 17 18 20 21 23 24 25 27 29 31 34 35 33 36 34 28 16 6 5 5 10 11 20 26 21 22 24 6 13 12 10 11 15 24 24 28 18 20 28 15
9 10 11 12 14 14 16 16 19 21 22 24 25 26 28 30 31 33 33 35 36 33 15 14 12 7 4 12 9 27 28 24 26 19 18 15 16 11 9 13 17 13 16 27 37 16 19
9 10 10 12 13 14 15 17 19 20 22 25 27 28 28 30 32 33 30 31 23 14 21 9 12 2 4 6 21 27 23 15 19 18 17 15 11 7 11 11 9 15 22 24 24 14 10
9 9 10 11 13 15 16 17 19 21 23 24 27 29 31 33 33 29 28 21 24 11 23 7 17 4 8 7 21 23 21 21 3 8 7 6 4 9 13 12 21 13 16 26 23 12 18
8 9 11 13 14 15 16 17 20 21 23 25 26 28 31 34 32 24 28 7 9 8 18 3 12 3 12 15 24 18 23 12 6 3 5 4 5 9 16 16 24 28 31 20 25 12 19
8 10 11 11 13 15 17 18 20 21 24 27 28 29 30 30 26 18 18 8 9 6 7 8 12 8 15 14 5 12 22 8 6 12 11 8 11 13 14 20 20 18 19 30 25 19 15
8 9 10 11 12 15 16 19 21 23 25 27 28 30 31 28 14 19 11 14 21 11 2 7 6 4 6 9 3 9 8 5 4 7 10 9 16 20 21 15 10 15 14 14 16 14 10
7 8 9 11 12 15 16 19 22 24 26 28 30 31 29 23 4 15 7 25 24 3 2 2 8 4 9 7 7 9 8 2 5 3 7 7 7 20 19 22 18 16 12 17 17 13 14
7 7 9 10 13 14 17 19 22 24 27 29 32 32 24 16 11 8 22 26 21 5 4 10 5 9 13 5 8 6 7 5 5 6 2 10 18 21 19 18 18 15 20 15 17 15 15
5 7 8 9 12 14 17 18 21 25 28 30 32 28 20 17 16 25 29 24 3 5 3 5 9 15 14 7 16 6 8 3 3 6 10 15 12 4 6 11 25 18 13 17 15 9 12
4 6 7 10 11 14 16 17 20 23 27 30 32 21 16 15 12 28 27 3 4 6 9 11 16 16 15 9 13 8 12 8 1 8 11 16 10 5 6 19 13 7 4 3 7 8 10
4 6 8 10 12 13 15 17 19 23 27 30 30 14 17 16 23 24 11 5 9 11 5 16 12 16 8 9 9 10 12 6 4 2 11 6 24 12 16 7 8 21 7 4 4 7 11
4 6 8 9 11 13 14 17 21 22 26 30 24 12 13 25 21 15 5 6 1 5 8 11 14 6 6 14 3 6 4 3 5 2 5 7 16 25 13 14 7 4 5 4 6 3 7
4 6 8 10 11 13 15 17 19 22 25 28 14 9 15 27 17 9 5 6 2 3 9 9 3 4 6 6 7 5 3 5 6 4 3 6 17 8 14 12 2 9 8 4 6 7 4
4 6 7 9 11 12 14 16 19 21 24 26 6 3 17 24 9 5 3 2 3 6 7 4 9 6 5 5 4 4 5 11 2 7 8 3 3 18 10 7 15 6 4 5 6 3 4
4 5 7 9 10 12 14 16 18 19 22 21 5 2 14 15 5 2 2 5 7 6 4 5 4 4 3 12 5 7 7 6 11 3 12 5 4 6 21 15 6 9 4 2 5 8 4
3 5 7 9 10 12 13 15 17 18 19 9 1 2 7 6 3 3 5 3 4 5 8 4 4 3 3 5 6 11 9 10 11 15 5 5 3 11 14 4 2 7 14 14 9 5 6
3 4 6 8 10 11 13 15 16 17 19 5 2 3 4 4 1 4 3 5 5 2 7 4 4 5 11 12 10 9 10 15 18 15 17 9 1 2 8 12 15 17 26 22 4 2 7
2 3 6 8 10 11 12 13 14 16 17 3 3 2 3 3 3 3 4 2 6 6 3 3 3 10 10 7 12 7 22 23 18 11 6 1 3 9 14 15 10 10 14 24 22 16 6
1 3 6 7 9 10 11 12 13 14 13 7 2 2 2 3 3 3 4 4 2 6 2 5 7 14 12 4 9 18 19 17 7 7 7 3 3 11 4 4 13 2 21 13 24 21 13
1 2 4 6 8 9 10 11 12 13 13 1 1 4 2 3 2 2 2 3 11 14 5 5 8 7 11 11 16 21 15 11 11 5 4 3 5 6 5 15 13 2 20 14 7 19 16
1 2 4 6 7 9 10 11 12 11 11 8 6 2 2 4 2 4 7 5 8 10 6 9 5 1 6 16 13 6 6 4 0 3 3 6 9 4 5 12 4 3 13 7 4 20 20
2 3 5 7 7 8 10 11 11 10 9 12 9 2 1 4 2 9 6 4 8 8 4 4 4 4 7 6 5 6 5 6 4 5 8 6 3 4 4 5 3 9 26 16 7 5 24
3 3 5 7 8 9 9 10 10 11 11 11 11 5 2 2 4 2 3 3 2 3 5 4 6 12 4 3 3 3 3 5 6 11 7 10 2 2 3 4 6 9 25 25 6 2 28
4 4 6 7 8 9 9 10 11 11 12 12 7 4 4 2 4 3 1 3 2 1 2 4 6 6 4 3 2 1 3 2 4 7 8 6 5 6 8 3 3 15 21 19 9 9 24
4 5 6 8 8 9 10 11 12 11 11 9 8 3 3 2 5 4 3 1 3 1 1 4 4 4 3 4 1 2 1 3 3 4 5 4 6 4 5 5 5 21 7 8 7 11 16
4 6 7 8 10 10 10 12 12 11 11 9 3 4 6 4 5 9 17 12 9 10 3 2 4 2 3 1 1 2 2 1 2 3 4 4 1 3 3 3 5 14 2 8 10 13 12
Wind_Direction
50 44 34 25 21 18 14 10 4 3 1 356 352 350 348 345 342 338 335 330 325 322 320 318 315 312 317 356 254 350 351 354 352 0 298 220 218 219 230 211 223 233 232 219 230 244 248
46 38 30 23 20 13 10 4 3 2 357 354 352 350 346 342 340 338 335 330 325 322 319 315 311 309 209 270 324 349 349 358 2 358 338 327 255 237 279 260 238 265 237 243 246 237 238
40 33 22 17 9 10 6 1 2 358 354 353 352 349 346 344 342 338 335 330 323 322 321 324 328 294 205 260 331 345 350 347 349 331 305 313 301 293 330 245 248 256 262 263 244 234 224
35 25 19 15 18 10 5 6 359 355 354 353 351 350 346 344 341 337 336 330 330 332 325 304 290 289 251 278 0 346 344 335 333 339 318 298 292 276 212 308 295 269 241 247 247 231 230
33 22 17 15 17 13 8 0 357 358 356 353 350 346 344 341 340 338 339 334 336 12 336 50 72 214 322 15 352 338 341 319 327 344 330 288 265 245 261 249 275 237 253 242 266 231 207
31 21 16 16 21 10 4 2 1 357 355 353 350 346 344 342 341 344 346 341 339 337 26 51 38 48 10 309 322 325 337 331 335 322 326 23 305 251 242 240 251 254 240 246 258 243 219
27 22 27 19 8 8 7 5 1 359 356 353 351 347 344 341 343 351 4 7 15 355 1 294 287 249 268 290 326 343 355 338 338 24 335 298 267 250 262 249 249 252 261 260 254 245 243
31 18 12 15 11 10 7 4 0 358 354 352 349 347 343 340 343 359 21 48 48 276 313 292 261 235 256 296 310 345 360 5 351 334 331 325 271 273 298 294 286 284 273 262 267 278 281
33 27 20 15 10 8 7 4 2 358 353 350 347 345 344 342 345 7 15 12 349 353 335 301 272 299 312 325 302 334 7 322 286 306 338 293 275 286 282 270 301 295 277 287 278 270 264
41 26 19 11 15 4 2 360 358 355 351 348 349 346 343 347 15 346 338 335 339 355 46 295 7 3 341 300 1 336 343 303 333 275 311 286 289 307 295 288 275 278 273 278 269 284 251
30 24 19 14 10 8 1 356 354 353 350 349 348 345 345 356 326 330 325 328 329 157 27 330 14 317 312 22 304 333 326 325 287 291 66 267 307 305 302 285 319 271 272 269 268 262 274
29 25 17 10 3 4 359 357 354 352 350 347 347 348 351 0 335 334 334 328 124 52 330 351 333 327 345 353 336 299 326 356 275 288 295 286 277 281 315 308 308 252 270 268 259 236 245
38 24 14 0 9 4 359 357 356 352 346 345 346 357 10 2 328 335 333 17 47 56 353 344 330 327 313 345 327 328 329 327 334 325 325 311 299 231 287 328 307 32 331 247 203 202 234
45 18 15 22 11 9 3 358 357 352 345 344 349 16 20 358 342 338 340 56 57 2 348 320 321 313 316 347 316 325 330 336 314 354 310 326 328 344 316 301 289 292 227 261 213 190 200
35 29 22 20 15 11 5 2 356 354 348 346 354 37 356 0 357 3 61 49 38 338 307 318 318 309 306 330 318 357 291 246 253 286 339 307 304 311 307 325 315 325 215 273 267 269 172
48 41 30 21 14 5 4 2 2 357 349 347 349 330 1 355 10 40 58 79 319 266 324 320 310 317 316 321 333 348 315 252 278 228 170 270 300 310 333 332 317 296 329 306 192 172 180
70 48 31 17 7 10 3 2 359 356 350 350 20 25 359 1 355 43 87 240 295 306 339 304 303 308 284 308 277 274 249 293 240 303 331 239 254 300 311 323 301 333 8 330 281 257 167
64 41 20 12 9 5 8 2 360 359 352 358 2 45 350 3 35 33 40 311 299 299 325 301 294 214 224 319 290 294 288 267 311 267 310 247 275 299 305 307 259 333 4 338 340 342 305
59 28 13 8 5 12 8 4 1 360 359 346 57 289 342 18 53 339 311 289 244 307 326 307 286 281 281 299 308 291 296 305 305 320 284 294 347 325 333 355 280 318 317 302 263 231 251
59 25 15 6 5 6 15 6 2 5 360 3 74 17 325 36 82 121 332 281 306 289 286 283 265 287 328 316 308 286 303 314 311 307 311 358 244 264 287 285 291 309 318 346 118 293 345
70 23 7 2 3 11 6 6 3 5 8 41 41 276 189 299 315 297 190 253 299 329 294 305 295 328 324 299 310 303 323 325 319 323 331 121 240 303 296 296 300 313 352 24 24 2 16
93 5 351 359 358 360 1 1 3 8 16 61 89 41 331 269 285 284 296 281 294 317 215 290 311 317 313 255 272 305 315 312 279 324 324 339 290 320 306 349 324 43 8 31 27 17 24
153 346 343 348 353 352 353 355 0 3 12 87 296 262 158 260 279 78 265 305 305 308 277 262 293 314 311 307 313 293 284 267 253 287 293 324 328 327 297 315 311 337 8 358 32 26 18
219 323 333 337 345 346 347 349 351 353 351 349 326 255 250 270 190 263 312 290 299 305 272 287 306 229 278 313 307 296 289 282 272 346 262 310 324 317 298 321 41 115 3 344 1 35 20
245 303 324 332 340 336 343 345 343 342 338 331 337 306 306 288 252 294 338 278 315 303 275 264 281 265 311 324 359 340 339 354 321 332 331 351 315 314 339 322 289 332 353 342 318 64 18
250 296 318 325 330 330 337 340 337 332 334 329 331 308 206 303 266 199 258 218 255 292 326 272 317 315 352 6 38 2 325 313 334 329 333 352 32 35 319 337 23 358 332 333 282 311 8
258 291 308 318 320 323 330 333 329 329 331 327 318 326 253 224 277 109 274 233 264 15 254 309 321 338 11 16 8 299 309 328 355 336 335 339 343 14 348 340 78 355 341 326 38 314 331
266 290 309 313 316 320 322 326 325 328 327 317 319 186 223 221 273 236 227 144 324 110 246 277 13 347 360 31 52 282 50 280 360 315 350 28 334 347 341 354 358 8 0 32 306 307 317
265 287 303 311 316 315 319 322 321 323 322 305 273 237 289 226 246 287 285 277 241 242 271 338 198 184 251 265 228 229 294 14 146 301 25 31 344 293 28 298 351 344 68 339 330 317 319